Météo par heure à Dzhyakovo

Ce jour, 23 Janvier, Samedi

Heure Température Précipitation Vent Pression Humidité
00:00 +8°C° 0 mm 6 m/s 743 mmHg 74%
01:00 +8°C° 0 mm 7 m/s 743 mmHg 72%
02:00 +8°C° 0 mm 7 m/s 742 mmHg 72%
03:00 +8°C° 0 mm 7 m/s 742 mmHg 72%
04:00 +8°C° 0 mm 7 m/s 741 mmHg 71%
05:00 +8°C° 0 mm 7 m/s 741 mmHg 72%
06:00 +8°C° 0 mm 7 m/s 741 mmHg 72%
07:00 +8°C° 0 mm 6 m/s 741 mmHg 73%
08:00 +8°C° 0 mm 7 m/s 741 mmHg 70%
09:00 +9°C° 0 mm 7 m/s 740 mmHg 68%
10:00 +9°C° 0 mm 8 m/s 740 mmHg 66%
11:00 +9°C° 0.2 mm 7 m/s 740 mmHg 67%
12:00 +9°C° 0.2 mm 7 m/s 740 mmHg 69%
13:00 +9°C° 0.2 mm 6 m/s 739 mmHg 70%
14:00 +9°C° 0.1 mm 6 m/s 739 mmHg 71%
15:00 +9°C° 0.1 mm 5 m/s 739 mmHg 72%
16:00 +9°C° 0.1 mm 5 m/s 739 mmHg 73%
17:00 +8°C° 0.2 mm 4 m/s 739 mmHg 77%
18:00 +7°C° 0.2 mm 4 m/s 739 mmHg 81%
19:00 +7°C° 0.2 mm 3 m/s 739 mmHg 84%
20:00 +7°C° 0 mm 3 m/s 739 mmHg 82%
21:00 +7°C° 0 mm 3 m/s 739 mmHg 80%
22:00 +7°C° 0 mm 3 m/s 739 mmHg 78%
23:00 +5°C° 0 mm 3 m/s 739 mmHg 79%

Demain, 24 Janvier, Dimanche

Heure Température Précipitation Vent Pression Humidité
00:00 +5°C° 0 mm 3 m/s 739 mmHg 79%
01:00 +4°C° 0 mm 3 m/s 739 mmHg 79%
02:00 +5°C° 0 mm 3 m/s 739 mmHg 79%
03:00 +5°C° 0 mm 3 m/s 739 mmHg 78%
04:00 +6°C° 0 mm 2 m/s 738 mmHg 78%
05:00 +4°C° 0 mm 3 m/s 739 mmHg 80%
06:00 +4°C° 0 mm 3 m/s 739 mmHg 82%
07:00 +3°C° 0 mm 3 m/s 739 mmHg 84%
08:00 +4°C° 0 mm 3 m/s 740 mmHg 79%
09:00 +5°C° 0 mm 4 m/s 740 mmHg 75%
10:00 +6°C° 0 mm 4 m/s 740 mmHg 71%
11:00 +7°C° 0 mm 4 m/s 740 mmHg 71%
12:00 +7°C° 0 mm 4 m/s 741 mmHg 70%
13:00 +8°C° 0 mm 4 m/s 741 mmHg 70%
14:00 +6°C° 0 mm 4 m/s 741 mmHg 74%
15:00 +5°C° 0 mm 4 m/s 741 mmHg 79%
16:00 +4°C° 0 mm 4 m/s 742 mmHg 83%
17:00 +4°C° 0 mm 4 m/s 742 mmHg 83%
18:00 +3°C° 0 mm 4 m/s 742 mmHg 83%
19:00 +2°C° 0 mm 3 m/s 742 mmHg 82%
20:00 +2°C° 0 mm 3 m/s 742 mmHg 80%
21:00 +1°C° 0 mm 4 m/s 742 mmHg 77%
22:00 +1°C° 0 mm 4 m/s 741 mmHg 74%
23:00 +1°C° 0.6 mm 5 m/s 741 mmHg 77%

Après-demain, 25 Janvier, Lundi

Heure Température Précipitation Vent Pression Humidité
00:00 -1°C° 0.6 mm 6 m/s 740 mmHg 80%
01:00 -1°C° 0.6 mm 6 m/s 740 mmHg 83%
02:00 -1°C° 0.9 mm 6 m/s 740 mmHg 82%
03:00 -1°C° 0.9 mm 6 m/s 740 mmHg 81%
04:00 -1°C° 0.9 mm 6 m/s 740 mmHg 80%
05:00 -1°C° 0.2 mm 6 m/s 740 mmHg 78%
06:00 0°C° 0.2 mm 5 m/s 741 mmHg 76%
07:00 0°C° 0.2 mm 5 m/s 741 mmHg 74%
08:00 0°C° 0 mm 5 m/s 742 mmHg 72%
09:00 -1°C° 0 mm 6 m/s 742 mmHg 71%
10:00 0°C° 0 mm 7 m/s 743 mmHg 69%
11:00 0°C° 0 mm 7 m/s 743 mmHg 67%
12:00 +2°C° 0 mm 7 m/s 744 mmHg 66%
13:00 +2°C° 0 mm 7 m/s 744 mmHg 64%
14:00 +2°C° 0 mm 7 m/s 745 mmHg 64%
15:00 +2°C° 0 mm 6 m/s 745 mmHg 64%
16:00 +2°C° 0 mm 6 m/s 746 mmHg 64%
17:00 +1°C° 0 mm 6 m/s 747 mmHg 65%
18:00 0°C° 0 mm 5 m/s 748 mmHg 65%
19:00 0°C° 0 mm 5 m/s 748 mmHg 66%
20:00 0°C° 0 mm 5 m/s 749 mmHg 68%
21:00 -1°C° 0 mm 4 m/s 750 mmHg 71%
22:00 -1°C° 0 mm 4 m/s 750 mmHg 73%
23:00 -2°C° 0 mm 4 m/s 751 mmHg 75%

26 Janvier, Mardi

Heure Température Précipitation Vent Pression Humidité
00:00 -2°C° 0 mm 4 m/s 751 mmHg 76%
01:00 -2°C° 0 mm 4 m/s 751 mmHg 77%
02:00 -1°C° 0 mm 3 m/s 751 mmHg 77%
03:00 -1°C° 0 mm 3 m/s 752 mmHg 77%
04:00 -1°C° 0 mm 3 m/s 752 mmHg 77%
05:00 -2°C° 0 mm 2 m/s 752 mmHg 78%
06:00 -2°C° 0 mm 2 m/s 752 mmHg 78%
07:00 -2°C° 0 mm 2 m/s 753 mmHg 79%
08:00 -1°C° 0 mm 2 m/s 753 mmHg 74%
09:00 +1°C° 0 mm 3 m/s 753 mmHg 69%
10:00 +1°C° 0 mm 4 m/s 754 mmHg 64%
11:00 +3°C° 0 mm 3 m/s 753 mmHg 60%
12:00 +4°C° 0 mm 3 m/s 753 mmHg 57%
13:00 +4°C° 0 mm 3 m/s 753 mmHg 54%
14:00 +4°C° 0 mm 3 m/s 753 mmHg 58%
15:00 +4°C° 0 mm 2 m/s 753 mmHg 62%
16:00 +4°C° 0 mm 2 m/s 753 mmHg 65%
17:00 +3°C° 0 mm 2 m/s 753 mmHg 68%
18:00 +2°C° 0 mm 2 m/s 753 mmHg 71%
19:00 +1°C° 0 mm 2 m/s 754 mmHg 74%
20:00 +1°C° 0 mm 2 m/s 754 mmHg 75%
21:00 +1°C° 0 mm 2 m/s 755 mmHg 77%
22:00 +1°C° 0 mm 2 m/s 755 mmHg 78%
23:00 +1°C° 0 mm 2 m/s 755 mmHg 80%

27 Janvier, Mercredi

Heure Température Précipitation Vent Pression Humidité
00:00 -1°C° 0 mm 2 m/s 755 mmHg 83%
01:00 -2°C° 0 mm 2 m/s 756 mmHg 85%
02:00 -2°C° 0 mm 2 m/s 755 mmHg 86%
03:00 -2°C° 0 mm 2 m/s 755 mmHg 86%
04:00 -2°C° 0 mm 2 m/s 755 mmHg 86%
05:00 -2°C° 0 mm 2 m/s 755 mmHg 85%
06:00 -2°C° 0 mm 2 m/s 755 mmHg 83%
07:00 -2°C° 0 mm 2 m/s 755 mmHg 82%
08:00 -1°C° 0 mm 2 m/s 755 mmHg 78%
09:00 +1°C° 0 mm 2 m/s 754 mmHg 74%
10:00 +1°C° 0 mm 3 m/s 754 mmHg 70%
11:00 +2°C° 0 mm 3 m/s 754 mmHg 67%
12:00 +3°C° 0 mm 3 m/s 753 mmHg 64%
13:00 +3°C° 0 mm 3 m/s 753 mmHg 61%
14:00 +3°C° 0 mm 3 m/s 752 mmHg 65%
15:00 +2°C° 0 mm 3 m/s 752 mmHg 69%
16:00 +3°C° 0 mm 2 m/s 752 mmHg 73%
17:00 +2°C° 0 mm 2 m/s 752 mmHg 76%
18:00 +2°C° 0 mm 2 m/s 753 mmHg 78%
19:00 +1°C° 0 mm 2 m/s 753 mmHg 81%
20:00 +1°C° 0 mm 2 m/s 753 mmHg 79%
21:00 +1°C° 0 mm 2 m/s 753 mmHg 78%
22:00 +2°C° 0 mm 2 m/s 754 mmHg 77%
23:00 +1°C° 0 mm 3 m/s 754 mmHg 78%

28 Janvier, Jeudi

Heure Température Précipitation Vent Pression Humidité
00:00 +1°C° 0 mm 3 m/s 754 mmHg 78%
01:00 0°C° 0 mm 4 m/s 754 mmHg 79%
02:00 0°C° 0 mm 4 m/s 754 mmHg 79%
03:00 +1°C° 0 mm 4 m/s 754 mmHg 79%
04:00 +1°C° 0 mm 4 m/s 754 mmHg 79%
05:00 +1°C° 0 mm 4 m/s 754 mmHg 81%
06:00 +1°C° 0 mm 3 m/s 754 mmHg 83%
07:00 +1°C° 0 mm 3 m/s 755 mmHg 86%
08:00 +2°C° 0 mm 3 m/s 755 mmHg 80%
09:00 +3°C° 0 mm 3 m/s 755 mmHg 75%
10:00 +4°C° 0 mm 2 m/s 755 mmHg 70%
11:00 +5°C° 0 mm 2 m/s 754 mmHg 67%
12:00 +6°C° 0 mm 2 m/s 754 mmHg 63%
13:00 +7°C° 0 mm 2 m/s 753 mmHg 59%
14:00 +7°C° 0 mm 2 m/s 753 mmHg 62%
15:00 +7°C° 0 mm 1 m/s 753 mmHg 65%
16:00 +7°C° 0 mm 1 m/s 752 mmHg 67%
17:00 +7°C° 0 mm 1 m/s 752 mmHg 70%
18:00 +5°C° 0 mm 2 m/s 752 mmHg 72%
19:00 +5°C° 0 mm 2 m/s 752 mmHg 75%
Voir plus

Nous avons besoin de votre consentement

Meteoprog et ses fournisseurs de services peuvent stocker et accéder à des données personnelles telles que des cookies, des identifiants d'appareils ou d'autres technologies similaires sur votre appareil et traiter ces données pour personnaliser le contenu et les publicités, ainsi que pour fournir des fonctionnalités de médias sociaux et analyser le trafic.

  • Stocker et/ou accéder à des informations sur votre appareil

    Des cookies, des identifiants d'appareils ou d'autres informations peuvent être stockés ou accessibles sur votre appareil aux fins indiquées ci-dessus.

  • Annonces et contenus personnalisés, mesure des annonces et des contenus, connaissance de l'audience et développement de produits

    Les annonces et le contenu peuvent être personnalisés en fonction d'un profil. D'autres données peuvent être ajoutées pour mieux personnaliser les annonces et le contenu. Les performances des publicités et du contenu peuvent être mesurées. Il est possible d'obtenir des informations sur le public qui a vu les publicités et le contenu. Ces données peuvent être utilisées pour développer ou améliorer l'expérience de l'utilisateur, les systèmes et les logiciels.

En cliquant sur "J'accepte", vous autorisez l'utilisation de cookies, des identifiants d'appareils, des balises web ou d'autres technologies similaires. Vos paramètres peuvent être modifiés dans le navigateur de votre appareil.

Dans certains cas, des intérêts légitimes peuvent être invoqués plutôt qu'un consentement. Vous pouvez en savoir plus à ce sujet dans notre Politique de confidentialité et de cookies.